Terug naar catalogus

FENGYUN 1C DEB

ActiefSSO
NORAD 31018·DEBRIS·🇨🇳 China

Gelanceerd May 10, 1999 vanaf Taiyuan Satellite Launch Center

Loading…

Volgende Passages (komende 24 uur)

TLE

VersSource: Space-Track

Epoch: Sep 11, 2026, 05:16 UTC

1 31018U 99025BDL 26254.21961263  .00001774  00000-0  86579-3 0  9994
2 31018  99.0209 350.2140 0057876  71.3106 289.4339 14.18489168999162

Volg FENGYUN 1C DEB in realtime met AllMySat

Download on the App Store